#timestamp,LO_Frequency,Hit 
1499079615.8,286046942.9,N
1499079635.7,286046942.7,N
1499079655.5,286046943.3,N
1499079675.3,286046939.5,N
1499079695.2,286046938.8,N
1499079715.9,286046936.1,N
1499079735.7,286046936.9,N
1499079755.6,286046936.2,N
1499079775.4,286046940.0,N
1499079795.2,286046940.3,N
1499079815.0,286046940.3,N
1499079816.0,286046940.3,N
1499079835.8,286046938.4,N
1499079855.6,286046936.0,N
1499079875.4,286046934.1,N
1499079895.3,286046932.6,N
1499079915.1,286046933.7,N
1499079935.8,286046933.6,N
1499079955.7,286046934.0,N
1499079975.5,286046932.6,N
1499079995.3,286046933.4,N
1499080015.2,286046932.5,N
1499080035.9,286046933.1,N
1499080055.7,286046931.3,N
1499080075.6,286046933.4,N
1499080095.4,286046931.2,N
1499080115.2,286046931.2,N
1499080135.1,286046929.3,N
1499080136.0,286046929.3,N
1499080155.8,286046930.7,N
1499080175.6,286046930.0,N
1499080195.4,286046928.3,N
1499080215.3,286046926.1,N
1499080235.1,286046929.0,N
1499080255.8,286046926.4,N
1499080275.7,286046928.8,N
1499080295.5,286046926.3,N
1499080315.3,286046927.2,N
1499080335.2,286046924.6,N
1499080355.9,286046925.3,N
1499080375.7,286046925.6,N
1499080395.6,286046926.0,N
1499080415.4,286046923.6,N
1499080435.2,286046923.3,N
1499080455.1,286046921.5,N
1499080456.0,286046921.5,N
1499080475.8,286046921.8,N
1499080495.6,286046921.3,N
1499080515.4,286046921.5,N
1499080535.3,286046922.3,N
1499080555.1,286046922.6,N
1499080575.9,286046919.9,Y
1499080595.7,286046957.0,N
1499080615.5,286046959.5,N
1499080635.3,286046957.7,N
1499080655.2,286046955.3,N
1499080675.0,286046956.1,N
1499080675.9,286046956.1,N
1499080695.7,286046954.0,N
1499080715.6,286046953.5,N
1499080735.4,286046951.7,N
1499080755.2,286046951.8,N
1499080775.1,286046954.4,N
1499080776.0,286046954.4,N
1499080795.8,286046954.4,N
1499080815.6,286046954.1,N
1499080835.5,286046954.6,N
1499080855.3,286046954.5,N
1499080875.1,286046954.5,N
1499080895.9,286046952.2,N
1499080915.7,286046951.8,N
1499080935.5,286046952.8,N
1499080955.3,286046951.1,N
1499080975.2,286046949.3,N
1499080995.0,286046947.5,N
1499080995.9,286046947.5,N
1499081015.7,286046947.6,N
1499081035.6,286046947.4,N
1499081055.4,286046947.8,N
1499081075.2,286046947.5,N
1499081095.1,286046947.7,N
1499081096.0,286046947.7,N
1499081115.8,286046948.1,N
1499081135.6,286046946.1,N
1499081155.5,286046946.8,N
1499081175.3,286046946.7,N
1499081195.1,286046945.0,N
1499081215.9,286046943.4,N
1499081235.7,286046943.3,N
1499081255.5,286046945.2,N
1499081275.3,286046945.2,N
1499081295.2,286046944.6,N
1499081315.0,286046944.7,N
1499081315.9,286046944.7,N
1499081335.7,286046942.9,N
1499081355.6,286046943.2,N
1499081375.4,286046941.3,N
1499081395.2,286046941.3,N
1499081415.1,286046941.8,N
1499081416.0,286046941.8,N
1499081435.8,286046941.9,N
1499081455.6,286046939.6,N
1499081475.5,286046940.4,N
1499081495.3,286046938.6,N
1499081515.1,286046938.5,N
1499081535.9,286046936.4,N
1499081555.7,286046935.9,N
1499081575.5,286046938.8,N
1499081595.4,286046936.3,N
1499081615.2,286046938.0,N
1499081635.0,286046938.8,N
1499081635.9,286046938.8,N
1499081655.8,286046935.9,N
1499081675.6,286046936.6,N
1499081695.4,286046934.1,N
1499081715.2,286046935.2,N
1499081735.1,286046932.5,N
1499081736.0,286046932.5,N
1499081755.8,286046932.7,N
1499081775.6,286046933.3,N
1499081795.5,286046932.8,N
1499081815.3,286046933.5,N
1499081835.1,286046934.0,N
1499081855.9,286046931.1,N
1499081875.7,286046931.1,N
1499081895.5,286046931.7,N
1499081915.4,286046932.3,N
1499081935.2,286046930.5,N
1499081955.0,286046929.4,N
1499081955.9,286046929.4,N
1499081975.8,286046929.7,N
1499081995.6,286046931.9,N
1499082015.4,286046930.3,N
1499082035.3,286046929.7,N
1499082055.1,286046930.2,N
1499082056.0,286046930.2,N
1499082075.8,286046928.2,N
1499082095.7,286046928.7,N
1499082115.5,286046928.5,N
1499082135.3,286046926.2,Y
1499082155.2,286046967.9,N
1499082175.9,286046968.2,N
1499082195.7,286046966.2,N
1499082215.5,286046966.4,N
1499082235.4,286046967.2,N
1499082255.2,286046966.9,N
1499082275.0,286046967.2,N
1499082275.9,286046967.2,N
1499082295.8,286046967.0,N
1499082315.6,286046966.8,N
1499082335.4,286046965.2,N
1499082355.3,286046963.7,N
1499082375.1,286046963.1,N
1499082376.0,286046963.1,N
1499082395.8,286046964.0,N
1499082415.7,286046961.3,N
1499082435.5,286046964.0,N
1499082455.3,286046962.1,N
1499082475.1,286046962.5,N
1499082495.9,286046960.6,N
1499082515.7,286046960.3,N
1499082535.5,286046960.8,N
1499082555.4,286046960.6,N
1499082575.2,286046960.8,N
1499082595.0,286046958.7,N
1499082595.9,286046958.7,N
1499082615.8,286046958.8,N
1499082635.6,286046958.2,N
1499082655.4,286046958.3,N
1499082675.3,286046956.9,N
1499082695.1,286046956.5,N
1499082715.8,286046957.2,N
1499082735.7,286046957.5,N
1499082755.5,286046954.9,N
1499082775.3,286046955.6,N
1499082795.2,286046953.7,N
1499082815.9,286046953.4,N
1499082835.7,286046953.3,N
1499082855.6,286046954.1,N
1499082875.4,286046954.2,N
1499082895.2,286046954.4,N
1499082915.0,286046952.4,N
1499082915.9,286046952.4,N
1499082935.8,286046952.6,N
1499082955.6,286046952.8,N
1499082975.4,286046950.2,N
1499082995.3,286046950.4,N
1499083015.1,286046950.9,N
1499083035.8,286046951.0,N
1499083055.7,286046949.5,N
1499083075.5,286046949.0,N
1499083095.3,286046949.0,N
1499083115.2,286046949.1,N
1499083135.9,286046949.6,N
1499083155.7,286046948.0,N
1499083175.6,286046945.4,N
1499083195.4,286046946.6,N
